Location: Newark
(33.6333°S, 78.8500°W)
Time: 20:50:59
(UTC+00:00)

Courier 1B - Pass Details

Date: 30 September 2019
Orbit: 962 x 1209 km, 28.3° (Epoch: 21 October)

Event Time Altitude Azimuth Distance (km) Brightness Sun altitude
Rises 18:08:42 0° 309° (NW) 4,026 11.2 55.9°
Reaches altitude 10° 18:11:43 10° 317° (NW) 3,094 10.9 55.6°
Maximum altitude 18:18:38 36° 21° (NNE) 1,806 9.8 54.8°
Drops below altitude 10° 18:25:40 10° 84° (E) 3,151 10.1 54.0°
Sets 18:28:46 0° 91° (E) 4,109 10.5 53.6°
